[{"OBJECT_NAME":"STARLINK-30713","OBJECT_ID":"2023-148T","EPOCH":"2026-09-12T03:02:17.633472","MEAN_MOTION":15.34388727,"ECCENTRICITY":0.0001088,"INCLINATION":53.1625,"RA_OF_ASC_NODE":234.9763,"ARG_OF_PERICENTER":85.1819,"MEAN_ANOMALY":274.9308,"EPHEMERIS_TYPE":0,"CLASSIFICATION_TYPE":"U","NORAD_CAT_ID":57952,"ELEMENT_SET_NO":999,"REV_AT_EPOCH":16701,"BSTAR":0.000020336256,"MEAN_MOTION_DOT":0.00000311,"MEAN_MOTION_DDOT":0},{"OBJECT_NAME":"STARLINK-30700","OBJECT_ID":"2023-148U","EPOCH":"2026-09-12T07:13:59.416896","MEAN_MOTION":15.34410142,"ECCENTRICITY":0.00016987,"INCLINATION":53.1587,"RA_OF_ASC_NODE":225.7353,"ARG_OF_PERICENTER":95.5992,"MEAN_ANOMALY":264.5204,"EPHEMERIS_TYPE":0,"CLASSIFICATION_TYPE":"U","NORAD_CAT_ID":57953,"ELEMENT_SET_NO":999,"REV_AT_EPOCH":16715,"BSTAR":0.00011034528,"MEAN_MOTION_DOT":0.00003355,"MEAN_MOTION_DDOT":0},{"OBJECT_NAME":"STARLINK-30703","OBJECT_ID":"2023-148V","EPOCH":"2026-09-12T07:01:07.047552","MEAN_MOTION":15.34386763,"ECCENTRICITY":0.00013083,"INCLINATION":53.1594,"RA_OF_ASC_NODE":223.799,"ARG_OF_PERICENTER":93.9661,"MEAN_ANOMALY":266.1491,"EPHEMERIS_TYPE":0,"CLASSIFICATION_TYPE":"U","NORAD_CAT_ID":57954,"ELEMENT_SET_NO":999,"REV_AT_EPOCH":16718,"BSTAR":0.000034869589,"MEAN_MOTION_DOT":0.00000802,"MEAN_MOTION_DDOT":0},{"OBJECT_NAME":"STARLINK-30702","OBJECT_ID":"2023-148W","EPOCH":"2026-09-12T03:26:22.948224","MEAN_MOTION":15.34391867,"ECCENTRICITY":0.00015361,"INCLINATION":53.1608,"RA_OF_ASC_NODE":225.0015,"ARG_OF_PERICENTER":97.4151,"MEAN_ANOMALY":262.7026,"EPHEMERIS_TYPE":0,"CLASSIFICATION_TYPE":"U","NORAD_CAT_ID":57955,"ELEMENT_SET_NO":999,"REV_AT_EPOCH":16715,"BSTAR":0.000010399406,"MEAN_MOTION_DOT":-2.5e-7,"MEAN_MOTION_DDOT":0},{"OBJECT_NAME":"STARLINK-30396","OBJECT_ID":"2023-151A","EPOCH":"2026-09-12T07:22:51.152736","MEAN_MOTION":15.27584561,"ECCENTRICITY":0.00014983,"INCLINATION":43.004,"RA_OF_ASC_NODE":2.3972,"ARG_OF_PERICENTER":277.4636,"MEAN_ANOMALY":82.6045,"EPHEMERIS_TYPE":0,"CLASSIFICATION_TYPE":"U","NORAD_CAT_ID":57964,"ELEMENT_SET_NO":999,"REV_AT_EPOCH":16430,"BSTAR":0.000048087631,"MEAN_MOTION_DOT":0.00001061,"MEAN_MOTION_DDOT":0},{"OBJECT_NAME":"STARLINK-30524","OBJECT_ID":"2023-151B","EPOCH":"2026-09-12T07:13:36.714432","MEAN_MOTION":15.27613914,"ECCENTRICITY":0.00022537,"INCLINATION":43.006,"RA_OF_ASC_NODE":2.3524,"ARG_OF_PERICENTER":268.8506,"MEAN_ANOMALY":91.2088,"EPHEMERIS_TYPE":0,"CLASSIFICATION_TYPE":"U","NORAD_CAT_ID":57965,"ELEMENT_SET_NO":999,"REV_AT_EPOCH":16430,"BSTAR":-0.000191198,"MEAN_MOTION_DOT":-0.00005526,"MEAN_MOTION_DDOT":0},{"OBJECT_NAME":"STARLINK-30521","OBJECT_ID":"2023-151C","EPOCH":"2026-09-12T07:59:39.582528","MEAN_MOTION":15.27582557,"ECCENTRICITY":0.00018187,"INCLINATION":43.0041,"RA_OF_ASC_NODE":1.7269,"ARG_OF_PERICENTER":293.5504,"MEAN_ANOMALY":66.5156,"EPHEMERIS_TYPE":0,"CLASSIFICATION_TYPE":"U","NORAD_CAT_ID":57966,"ELEMENT_SET_NO":999,"REV_AT_EPOCH":16431,"BSTAR":0.000051346922,"MEAN_MOTION_DOT":0.00001151,"MEAN_MOTION_DDOT":0},{"OBJECT_NAME":"STARLINK-30528","OBJECT_ID":"2023-151D","EPOCH":"2026-09-11T08:32:51.858528","MEAN_MOTION":15.27565022,"ECCENTRICITY":0.00014814,"INCLINATION":43.004,"RA_OF_ASC_NODE":7.2934,"ARG_OF_PERICENTER":272.6028,"MEAN_ANOMALY":87.4654,"EPHEMERIS_TYPE":0,"CLASSIFICATION_TYPE":"U","NORAD_CAT_ID":57967,"ELEMENT_SET_NO":999,"REV_AT_EPOCH":16416,"BSTAR":0.000049891935,"MEAN_MOTION_DOT":0.0000111,"MEAN_MOTION_DDOT":0},{"OBJECT_NAME":"STARLINK-30495","OBJECT_ID":"2023-151E","EPOCH":"2026-09-11T15:09:49.699008","MEAN_MOTION":15.27579863,"ECCENTRICITY":0.00017767,"INCLINATION":43.0068,"RA_OF_ASC_NODE":5.9184,"ARG_OF_PERICENTER":275.8895,"MEAN_ANOMALY":84.1755,"EPHEMERIS_TYPE":0,"CLASSIFICATION_TYPE":"U","NORAD_CAT_ID":57968,"ELEMENT_SET_NO":999,"REV_AT_EPOCH":16420,"BSTAR":-0.000008101404,"MEAN_MOTION_DOT":-0.00000485,"MEAN_MOTION_DDOT":0},{"OBJECT_NAME":"STARLINK-30494","OBJECT_ID":"2023-151G","EPOCH":"2026-09-12T07:06:26.081280","MEAN_MOTION":15.27574764,"ECCENTRICITY":0.0001424,"INCLINATION":43.0028,"RA_OF_ASC_NODE":216.698,"ARG_OF_PERICENTER":262.5222,"MEAN_ANOMALY":97.5468,"EPHEMERIS_TYPE":0,"CLASSIFICATION_TYPE":"U","NORAD_CAT_ID":57970,"ELEMENT_SET_NO":999,"REV_AT_EPOCH":16599,"BSTAR":0.000034284603,"MEAN_MOTION_DOT":0.00000681,"MEAN_MOTION_DDOT":0},{"OBJECT_NAME":"STARLINK-30498","OBJECT_ID":"2023-151H","EPOCH":"2026-09-12T06:45:50.946624","MEAN_MOTION":15.27574325,"ECCENTRICITY":0.00015396,"INCLINATION":43.0056,"RA_OF_ASC_NODE":2.1849,"ARG_OF_PERICENTER":265.7888,"MEAN_ANOMALY":94.2788,"EPHEMERIS_TYPE":0,"CLASSIFICATION_TYPE":"U","NORAD_CAT_ID":57971,"ELEMENT_SET_NO":999,"REV_AT_EPOCH":16430,"BSTAR":-0.000004636982,"MEAN_MOTION_DOT":-0.0000039,"MEAN_MOTION_DDOT":0},{"OBJECT_NAME":"STARLINK-30505","OBJECT_ID":"2023-151J","EPOCH":"2026-09-12T07:19:09.320736","MEAN_MOTION":15.27584073,"ECCENTRICITY":0.00013936,"INCLINATION":43.0022,"RA_OF_ASC_NODE":2.3537,"ARG_OF_PERICENTER":234.8487,"MEAN_ANOMALY":125.2234,"EPHEMERIS_TYPE":0,"CLASSIFICATION_TYPE":"U","NORAD_CAT_ID":57972,"ELEMENT_SET_NO":999,"REV_AT_EPOCH":16430,"BSTAR":0.00037560742,"MEAN_MOTION_DOT":0.00010089,"MEAN_MOTION_DDOT":0},{"OBJECT_NAME":"STARLINK-30502","OBJECT_ID":"2023-151K","EPOCH":"2026-09-12T06:40:18.124320","MEAN_MOTION":15.27574171,"ECCENTRICITY":0.00012504,"INCLINATION":43.0028,"RA_OF_ASC_NODE":2.1583,"ARG_OF_PERICENTER":273.6866,"MEAN_ANOMALY":86.3842,"EPHEMERIS_TYPE":0,"CLASSIFICATION_TYPE":"U","NORAD_CAT_ID":57973,"ELEMENT_SET_NO":999,"REV_AT_EPOCH":16430,"BSTAR":-0.000003147387,"MEAN_MOTION_DOT":-0.00000349,"MEAN_MOTION_DDOT":0},{"OBJECT_NAME":"STARLINK-30489","OBJECT_ID":"2023-151L","EPOCH":"2026-09-12T06:47:41.097120","MEAN_MOTION":15.27592903,"ECCENTRICITY":0.00021453,"INCLINATION":43.0069,"RA_OF_ASC_NODE":2.2011,"ARG_OF_PERICENTER":273.0253,"MEAN_ANOMALY":87.0353,"EPHEMERIS_TYPE":0,"CLASSIFICATION_TYPE":"U","NORAD_CAT_ID":57974,"ELEMENT_SET_NO":999,"REV_AT_EPOCH":16430,"BSTAR":0.000095695248,"MEAN_MOTION_DOT":0.00002373,"MEAN_MOTION_DDOT":0},{"OBJECT_NAME":"STARLINK-30503","OBJECT_ID":"2023-151M","EPOCH":"2026-09-11T14:12:41.266656","MEAN_MOTION":15.27571364,"ECCENTRICITY":0.00014922,"INCLINATION":43.0013,"RA_OF_ASC_NODE":6.4462,"ARG_OF_PERICENTER":265.8787,"MEAN_ANOMALY":94.1894,"EPHEMERIS_TYPE":0,"CLASSIFICATION_TYPE":"U","NORAD_CAT_ID":57975,"ELEMENT_SET_NO":999,"REV_AT_EPOCH":16419,"BSTAR":-0.000012890982,"MEAN_MOTION_DOT":-0.00000617,"MEAN_MOTION_DDOT":0},{"OBJECT_NAME":"STARLINK-30512","OBJECT_ID":"2023-151N","EPOCH":"2026-09-12T08:10:44.485824","MEAN_MOTION":15.27579186,"ECCENTRICITY":0.0001283,"INCLINATION":43.0043,"RA_OF_ASC_NODE":1.7178,"ARG_OF_PERICENTER":274.8512,"MEAN_ANOMALY":85.2193,"EPHEMERIS_TYPE":0,"CLASSIFICATION_TYPE":"U","NORAD_CAT_ID":57976,"ELEMENT_SET_NO":999,"REV_AT_EPOCH":16431,"BSTAR":0.000014836365,"MEAN_MOTION_DOT":0.00000146,"MEAN_MOTION_DDOT":0},{"OBJECT_NAME":"STARLINK-30509","OBJECT_ID":"2023-151P","EPOCH":"2026-09-11T17:09:06.480576","MEAN_MOTION":15.27575078,"ECCENTRICITY":0.0001632,"INCLINATION":43.0044,"RA_OF_ASC_NODE":20.1032,"ARG_OF_PERICENTER":269.1153,"MEAN_ANOMALY":90.9512,"EPHEMERIS_TYPE":0,"CLASSIFICATION_TYPE":"U","NORAD_CAT_ID":57977,"ELEMENT_SET_NO":999,"REV_AT_EPOCH":16404,"BSTAR":0.000008802118,"MEAN_MOTION_DOT":-2e-7,"MEAN_MOTION_DDOT":0},{"OBJECT_NAME":"STARLINK-30511","OBJECT_ID":"2023-151Q","EPOCH":"2026-09-11T15:44:12.697728","MEAN_MOTION":15.2755151,"ECCENTRICITY":0.00029938,"INCLINATION":43.0036,"RA_OF_ASC_NODE":20.5186,"ARG_OF_PERICENTER":283.2476,"MEAN_ANOMALY":76.8042,"EPHEMERIS_TYPE":0,"CLASSIFICATION_TYPE":"U","NORAD_CAT_ID":57978,"ELEMENT_SET_NO":999,"REV_AT_EPOCH":16403,"BSTAR":0.00012301987,"MEAN_MOTION_DOT":0.00003121,"MEAN_MOTION_DDOT":0},{"OBJECT_NAME":"STARLINK-30508","OBJECT_ID":"2023-151R","EPOCH":"2026-09-11T15:49:45.041376","MEAN_MOTION":15.27576218,"ECCENTRICITY":0.00012556,"INCLINATION":43.0041,"RA_OF_ASC_NODE":20.5415,"ARG_OF_PERICENTER":269.2064,"MEAN_ANOMALY":90.8644,"EPHEMERIS_TYPE":0,"CLASSIFICATION_TYPE":"U","NORAD_CAT_ID":57979,"ELEMENT_SET_NO":999,"REV_AT_EPOCH":16403,"BSTAR":0.0001436203,"MEAN_MOTION_DOT":0.00003692,"MEAN_MOTION_DDOT":0},{"OBJECT_NAME":"STARLINK-30510","OBJECT_ID":"2023-151T","EPOCH":"2026-09-11T18:25:54.124320","MEAN_MOTION":15.27568784,"ECCENTRICITY":0.00018377,"INCLINATION":43.0053,"RA_OF_ASC_NODE":23.0435,"ARG_OF_PERICENTER":269.3297,"MEAN_ANOMALY":90.7344,"EPHEMERIS_TYPE":0,"CLASSIFICATION_TYPE":"U","NORAD_CAT_ID":57981,"ELEMENT_SET_NO":999,"REV_AT_EPOCH":16401,"BSTAR":0.000068887687,"MEAN_MOTION_DOT":0.00001633,"MEAN_MOTION_DDOT":0},{"OBJECT_NAME":"STARLINK-30507","OBJECT_ID":"2023-151U","EPOCH":"2026-09-11T15:23:08.037600","MEAN_MOTION":15.27578287,"ECCENTRICITY":0.00014547,"INCLINATION":43.0004,"RA_OF_ASC_NODE":23.8118,"ARG_OF_PERICENTER":260.386,"MEAN_ANOMALY":99.6827,"EPHEMERIS_TYPE":0,"CLASSIFICATION_TYPE":"U","NORAD_CAT_ID":57982,"ELEMENT_SET_NO":999,"REV_AT_EPOCH":16398,"BSTAR":0.00058364657,"MEAN_MOTION_DOT":0.00015832,"MEAN_MOTION_DDOT":0},{"OBJECT_NAME":"STARLINK-30515","OBJECT_ID":"2023-151V","EPOCH":"2026-09-11T17:02:51.142560","MEAN_MOTION":15.27574029,"ECCENTRICITY":0.00015518,"INCLINATION":43.002,"RA_OF_ASC_NODE":23.4694,"ARG_OF_PERICENTER":254.3817,"MEAN_ANOMALY":105.6864,"EPHEMERIS_TYPE":0,"CLASSIFICATION_TYPE":"U","NORAD_CAT_ID":57983,"ELEMENT_SET_NO":999,"REV_AT_EPOCH":16399,"BSTAR":0.00016645954,"MEAN_MOTION_DOT":0.0000432,"MEAN_MOTION_DDOT":0},{"OBJECT_NAME":"STARLINK-30516","OBJECT_ID":"2023-151W","EPOCH":"2026-09-11T17:08:23.665920","MEAN_MOTION":15.27564515,"ECCENTRICITY":0.00017299,"INCLINATION":43.0023,"RA_OF_ASC_NODE":23.5017,"ARG_OF_PERICENTER":263.1686,"MEAN_ANOMALY":96.8968,"EPHEMERIS_TYPE":0,"CLASSIFICATION_TYPE":"U","NORAD_CAT_ID":57984,"ELEMENT_SET_NO":999,"REV_AT_EPOCH":16400,"BSTAR":0.0001146895,"MEAN_MOTION_DOT":0.00002894,"MEAN_MOTION_DDOT":0}]